This is the latest recevied weather packets stored in our database for station/object KC2GYU. If no packets are shown the sender has not sent any weather packets the latest 10 day(s).
| Time | Temp. | Humidity | Pressure | Rain* | Wind** | Luminosity | Snow |
|---|---|---|---|---|---|---|---|
| 1777925425 | 18.89° C | 72% | 1012.8 hPa | 0 mm | - | 591 W/m² | - |
| 1777925121 | 20° C | 71% | 1012.7 hPa | 0 mm | - | 503 W/m² | - |
| 1777924818 | 20° C | 71% | 1012.6 hPa | 0 mm | - | 617 W/m² | - |
| 1777924514 | 19.44° C | 73% | 1012.5 hPa | 0 mm | - | 647 W/m² | - |
| 1777924211 | 19.44° C | 71% | 1012.8 hPa | 0 mm | - | 660 W/m² | - |
| 1777923908 | 19.44° C | 72% | 1013.1 hPa | 0 mm | - | 662 W/m² | - |
| 1777923602 | 19.44° C | 72% | 1013 hPa | 0 mm | - | 654 W/m² | - |
| 1777923295 | 18.89° C | 73% | 1013.2 hPa | 0 mm | - | 653 W/m² | - |
| 1777922994 | 19.44° C | 73% | 1013.3 hPa | 0 mm | - | 655 W/m² | - |
| 1777922691 | 18.89° C | 74% | 1013.1 hPa | 0 mm | - | 645 W/m² | - |
| 1777922389 | 18.89° C | 73% | 1013.2 hPa | 0 mm | - | 649 W/m² | - |
| 1777922087 | 19.44° C | 72% | 1013.1 hPa | 0 mm | - | 642 W/m² | - |
| 1777921782 | 19.44° C | 72% | 1013.1 hPa | 0 mm | - | 629 W/m² | - |
| 1777921478 | 19.44° C | 72% | 1013.4 hPa | 0 mm | - | 624 W/m² | - |
| 1777921175 | 20° C | 72% | 1013.2 hPa | 0 mm | - | 634 W/m² | - |
| 1777920872 | 19.44° C | 72% | 1013.5 hPa | 0 mm | - | 648 W/m² | - |
| 1777920568 | 19.44° C | 72% | 1013.6 hPa | 0 mm | - | 649 W/m² | - |
| 1777920264 | 19.44° C | 69% | 1013.6 hPa | 0 mm | - | 645 W/m² | - |
| 1777919960 | 18.89° C | 71% | 1013.6 hPa | 0 mm | - | 648 W/m² | - |
| 1777919657 | 19.44° C | 71% | 1013.3 hPa | 0 mm | - | 650 W/m² | - |
| 1777919355 | 19.44° C | 71% | 1013.6 hPa | 0 mm | - | 648 W/m² | - |
| 1777919052 | 19.44° C | 70% | 1013.7 hPa | 0 mm | - | 658 W/m² | - |
| 1777918749 | 19.44° C | 68% | 1013.6 hPa | 0 mm | - | 671 W/m² | - |
| 1777918446 | 19.44° C | 69% | 1013.7 hPa | 0 mm | - | 667 W/m² | - |
| 1777918145 | 19.44° C | 70% | 1013.9 hPa | 0 mm | - | 672 W/m² | - |
* Rain latest hour (hover to see other rain measurements)
** Current wind speed in m/s (hover to see current wind gust speed)